Location: Qazi Observatory
(41.6337°N, 88.1517°W)
Time: 20:01:05
(UTC-06:00)

Amateur Radio Satellites - All Passes

Search period start: 22 November 2014 19:31
Search period end: 23 November 2014 19:31
Location: Qazi Observatory, 41.6337°N, 88.1517°W

Satellite Date Start Highest point End Downlink Frequencies (MHz)
Time Altitude Azimuth
CINEMA 3 22 Nov 19:35:22 19:37:40 14° 64° (ENE) 19:39:56 145.822/145.860
Oscar 11 22 Nov 19:42:39 19:45:32 18° 65° (ENE) 19:48:25 145.826/435.025
BEESAT 3 22 Nov 19:52:04 19:54:52 18° 111° (ESE) 19:57:41 437.485
PCSat 22 Nov 19:53:30 19:58:44 53° 114° (ESE) 20:04:00 145.827
SEEDS 22 Nov 19:54:49 19:58:56 59° 74° (ENE) 20:03:04 437.485
RS-15 22 Nov 19:55:01 20:03:34 25° 340° (NNW) 20:12:16 29.354- 29.394
CUBESAT XI-V 22 Nov 19:57:17 20:00:44 21° 295° (WNW) 20:04:08 437.345
DX 1 22 Nov 19:59:22 20:03:01 26° 67° (ENE) 20:06:40 434.975-435.025
BEESAT 2 22 Nov 20:03:59 20:07:09 22° 112° (ESE) 20:10:22 435.950
DOVE 4 22 Nov 20:06:43 20:11:16 49° 73° (ENE) 20:15:34 437.250
PHONESAT 2.4 22 Nov 20:08:18 20:11:54 48° 197° (SSW) 20:15:28 2401.200-2431.200
AIST 1 22 Nov 20:12:50 20:17:09 59° 280° (W) 20:21:32
VELOX 1 22 Nov 20:14:47 20:16:41 13° 61° (ENE) 20:18:35 145.980
CANX-2 22 Nov 20:17:35 20:21:44 59° 260° (W) 20:25:55 2200.000
AAUSAT CUBESAT 2 22 Nov 20:19:11 20:23:20 84° 77° (ENE) 20:27:31 437.432
AIST 2 22 Nov 20:22:23 20:25:11 17° 110° (ESE) 20:28:01 435.215
ZACube-1 22 Nov 20:24:59 20:28:12 21° 67° (ENE) 20:31:23 437.345
GOMX 1 22 Nov 20:31:21 20:36:16 70° 258° (WSW) 20:40:52 467.674
COMPASS 1 22 Nov 20:31:57 20:36:03 60° 259° (W) 20:40:12 437.405
VERMONT LUNAR 22 Nov 20:34:50 20:38:01 29° 204° (SSW) 20:41:11 437.305
HUMSAT D 22 Nov 20:36:32 20:39:16 17° 66° (ENE) 20:42:00 437.325/437.525
AISAT 22 Nov 20:36:58 20:40:22 22° 66° (ENE) 20:43:46 437.250
STRAND 1 22 Nov 20:37:48 20:39:47 12° 302° (WNW) 20:41:46 437.568
BRITE-PL 22 Nov 20:41:18 20:46:12 42° 261° (W) 20:50:46 437.365/2234.400
DELFI C3 22 Nov 20:43:08 20:47:09 66° 75° (ENE) 20:51:13 145.870
50 SAT 22 Nov 20:49:43 20:52:39 20° 67° (ENE) 20:55:35 437.505
HO-68 22 Nov 20:51:30 20:58:07 40° 262° (W) 21:04:48 435.675
CUTE 1.7 & AOD 2 22 Nov 20:53:32 20:57:04 26° 265° (W) 21:00:38 437.475
FUNcube-1 22 Nov 21:00:03 21:04:09 50° 73° (ENE) 21:08:12 145.935
UKube-1 22 Nov 21:02:48 21:07:08 66° 258° (WSW) 21:11:29 .
CUBEBUG 1 22 Nov 21:04:43 21:07:15 15° 63° (ENE) 21:09:47 437.445
CUBEBUG 2 22 Nov 21:08:43 21:13:03 88° 75° (ENE) 21:17:17 437.445
CINEMA 3 22 Nov 21:10:04 21:14:29 56° 260° (W) 21:18:44 145.822/145.860
UWE-3 22 Nov 21:16:41 21:20:59 87° 257° (WSW) 21:25:13 435.000/436.395/437.385
Oscar 11 22 Nov 21:17:18 21:21:22 42° 261° (W) 21:25:29 145.826/435.025
GONETS M04 22 Nov 21:19:15 21:25:59 25° 279° (W) 21:32:41
ANTELSAT 22 Nov 21:26:16 21:28:26 13° 91° (E) 21:30:37 437.575/2403.000
BEESAT 3 22 Nov 21:28:49 21:32:45 44° 308° (NW) 21:36:46 437.485
SEEDS 22 Nov 21:33:46 21:35:09 11° 270° (W) 21:36:33 437.485
ESTCUBE 1 22 Nov 21:34:16 21:38:16 31° 69° (ENE) 21:42:18 437.505/2401.250
DX 1 22 Nov 21:35:20 21:39:10 29° 263° (W) 21:43:00 434.975-435.025
PCSat 22 Nov 21:37:59 21:42:27 26° 313° (NW) 21:46:56 145.827
BEESAT 2 22 Nov 21:41:23 21:45:13 37° 309° (NW) 21:49:08 435.950
DOVE 4 22 Nov 21:46:19 21:49:14 16° 267° (W) 21:52:05 437.250
PHONESAT 2.4 22 Nov 21:47:59 21:50:11 15° 212° (SSW) 21:52:24 2401.200-2431.200
VELOX 1 22 Nov 21:48:14 21:52:42 70° 258° (WSW) 21:57:11 145.980
POPSAT HIP 1 22 Nov 21:53:22 21:56:09 17° 93° (E) 21:58:56 437.405
BUGSAT 1 22 Nov 21:59:12 22:01:43 16° 92° (E) 22:04:13 437.445
AIST 2 22 Nov 21:59:20 22:03:26 47° 307° (NW) 22:07:37 435.215
ZACube-1 22 Nov 22:00:35 22:04:24 32° 263° (W) 22:08:12 437.345
HUMSAT D 22 Nov 22:10:53 22:14:48 40° 262° (W) 22:18:42 437.325/437.525
AISAT 22 Nov 22:12:36 22:16:46 37° 262° (W) 22:20:58 437.250
RS-15 22 Nov 22:12:52 22:21:13 23° 16° (NNE) 22:29:46 29.354- 29.394
TIGRISAT 22 Nov 22:21:19 22:25:36 51° 100° (E) 22:29:58 435.000
POLYITAN 1 22 Nov 22:23:45 22:27:42 37° 98° (E) 22:31:37 437.675
50 SAT 22 Nov 22:24:07 22:27:47 33° 263° (W) 22:31:27 437.505
QB50P2 22 Nov 22:27:14 22:31:15 41° 99° (E) 22:35:14 145.880/145.840
UNISAT 6 22 Nov 22:32:50 22:37:15 71° 102° (ESE) 22:41:44 437.425
DUCHIFAT 1 22 Nov 22:35:37 22:39:44 50° 100° (E) 22:43:49 145.980
FUNcube-1 22 Nov 22:38:42 22:40:48 13° 269° (W) 22:42:53 145.935
CUBEBUG 1 22 Nov 22:38:47 22:43:10 56° 260° (W) 22:47:33 437.445
SPROUT 22 Nov 22:41:48 22:45:43 34° 70° (ENE) 22:49:38 437.525
TISAT 1 22 Nov 22:43:08 22:47:09 41° 71° (ENE) 22:51:11 437.305
NANOSAT C BR1 22 Nov 22:54:21 22:58:35 85° 102° (ESE) 23:02:48 145.865
ANTELSAT 22 Nov 23:01:14 23:05:34 57° 286° (WNW) 23:09:59 437.575/2403.000
QB50P1 22 Nov 23:03:45 23:07:59 76° 285° (WNW) 23:12:11 145.935-145.965
AUBIESAT-1 22 Nov 23:04:02 23:07:12 23° 60° (ENE) 23:10:35 437.475
M-CUBED/EXP-1 PRIME 22 Nov 23:06:29 23:09:49 26° 61° (ENE) 23:13:25 437.505
ESTCUBE 1 22 Nov 23:11:22 23:15:09 26° 265° (W) 23:18:57 437.505/2401.250
ISS 22 Nov 23:24:37 23:26:39 16° 131° (SE) 23:28:41 145.825
ITUPSAT 1 22 Nov 23:27:50 23:31:25 21° 64° (ENE) 23:35:00 437.325
POPSAT HIP 1 22 Nov 23:28:17 23:32:15 40° 289° (WNW) 23:36:10 437.405
BUGSAT 1 22 Nov 23:33:34 23:37:26 40° 289° (WNW) 23:41:14 437.445
SWISSCUBE 22 Nov 23:39:33 23:43:40 30° 67° (ENE) 23:47:50 437.505
CUSAT 1 22 Nov 23:52:50 23:57:05 68° 80° (E) 00:02:50 437.405
TIGRISAT 22 Nov 23:59:20 00:01:58 16° 296° (WNW) 00:04:38 435.000
POLYITAN 1 23 Nov 00:00:24 00:03:24 19° 294° (WNW) 00:06:23 437.675
DANDE 23 Nov 00:03:07 00:07:12 71° 80° (E) 00:12:46 436.750
QB50P2 23 Nov 00:04:02 00:06:52 18° 295° (WNW) 00:09:41 145.880/145.840
BEESAT 23 Nov 00:10:46 00:15:26 55° 72° (ENE) 00:20:08 436.000
UNISAT 6 23 Nov 00:11:47 00:13:30 12° 298° (WNW) 00:15:13 437.425
DUCHIFAT 1 23 Nov 00:12:50 00:15:12 15° 296° (WNW) 00:17:33 145.980
SPROUT 23 Nov 00:18:35 00:21:52 21° 266° (W) 00:25:11 437.525
TISAT 1 23 Nov 00:20:20 00:23:10 17° 267° (W) 00:26:01 437.305
RS-15 23 Nov 00:26:03 00:36:57 54° 47° (NE) 00:48:16 29.354- 29.394
Oscar 19 23 Nov 00:33:58 00:38:03 23° 94° (E) 00:42:08 437.125/150
AUBIESAT-1 23 Nov 00:38:28 00:42:01 32° 259° (W) 00:45:52 437.475
M-CUBED/EXP-1 PRIME 23 Nov 00:41:26 00:44:48 27° 261° (W) 00:48:27 437.505
YUBILEINY 23 Nov 00:42:18 00:45:51 13° 74° (ENE) 00:49:23 435.215
ISS 23 Nov 00:59:42 01:02:58 62° 328° (NNW) 01:06:14 145.825
STARS 23 Nov 01:01:31 01:05:10 26° 67° (ENE) 01:08:48 437.465
ITUPSAT 1 23 Nov 01:04:25 01:09:00 44° 261° (W) 01:13:37 437.325
MaSat-1 23 Nov 01:04:37 01:06:56 79° 64° (ENE) 01:09:17 437.345
SWISSCUBE 23 Nov 01:17:15 01:21:28 30° 264° (W) 01:25:43 437.505
ITAMSAT 1 23 Nov 01:19:14 01:23:23 24° 94° (E) 01:27:29 435.822/435.867
Gurwin Techsat 1B 23 Nov 01:31:29 01:35:07 18° 92° (E) 01:38:42 435.225
KKS-1 23 Nov 01:33:51 01:38:19 84° 75° (ENE) 01:42:48 437.445
CUSAT 1 23 Nov 01:38:19 01:40:08 12° 268° (W) 01:42:08 437.405
DANDE 23 Nov 01:49:47 01:50:37 10° 268° (W) 01:51:29 436.750
BEESAT 23 Nov 01:50:42 01:53:37 16° 269° (W) 01:56:33 436.000
Oscar 19 23 Nov 02:12:42 02:17:33 43° 290° (WNW) 02:22:24 437.125/150
YUBILEINY 23 Nov 02:32:13 02:40:58 73° 94° (E) 02:49:43 435.215
AO-7 23 Nov 02:37:18 02:42:16 17° 89° (E) 02:47:12 29.400- 29.500
STARS 23 Nov 02:37:41 02:41:32 29° 264° (W) 02:45:25 437.465
ISS 23 Nov 02:37:46 02:40:07 18° 347° (NNW) 02:42:28 145.825
RS-15 23 Nov 02:38:42 02:49:17 50° 249° (WSW) 03:00:21 29.354- 29.394
HORYU 2 23 Nov 02:40:31 02:44:38 35° 98° (E) 02:48:44 437.375
ITAMSAT 1 23 Nov 02:58:09 03:03:01 42° 291° (WNW) 03:07:50 435.822/435.867
Gurwin Techsat 1B 23 Nov 03:10:13 03:15:25 56° 288° (WNW) 03:20:36 435.225
SO-50 23 Nov 03:38:15 03:42:13 31° 114° (ESE) 03:46:17 436.795
MOZHAYETS 4 23 Nov 03:50:42 03:55:13 62° 74° (ENE) 03:59:48
BEESAT 3 23 Nov 04:11:19 04:14:00 16° 42° (NE) 04:16:40 437.485
ISS 23 Nov 04:15:41 04:17:44 15° 7° (N) 04:19:47 145.825
HORYU 2 23 Nov 04:17:36 04:21:07 23° 294° (WNW) 04:24:38 437.375
BEESAT 2 23 Nov 04:23:45 04:26:47 19° 43° (NE) 04:29:48 435.950
AO-7 23 Nov 04:27:44 04:36:09 85° 108° (ESE) 04:44:32 29.400- 29.500
YUBILEINY 23 Nov 04:31:39 04:38:35 25° 294° (WNW) 04:45:34 435.215
STRAND 1 23 Nov 04:35:30 04:38:48 18° 61° (ENE) 04:42:06 437.568
JAS-2 23 Nov 04:39:06 04:45:58 44° 96° (E) 04:52:02 435.910
PRISM 23 Nov 04:39:23 04:43:19 40° 71° (ENE) 04:47:17 437.425
PCSat 23 Nov 04:41:11 04:46:24 45° 54° (NE) 04:51:34 145.827
AIST 2 23 Nov 04:43:33 04:46:21 17° 41° (NE) 04:49:07 435.215
O/OREOS (USA 219) 23 Nov 05:05:40 05:07:34 13° 98° (E) 05:09:28 437.305
Cubesat XI-IV 23 Nov 05:12:01 05:15:52 20° 92° (E) 05:19:41 437.490
SO-50 23 Nov 05:18:38 05:22:43 32° 313° (NW) 05:26:55 436.795
CUBESAT XI-V 23 Nov 05:22:45 05:27:12 43° 71° (ENE) 05:31:40 437.345
MOZHAYETS 4 23 Nov 05:30:47 05:32:52 13° 270° (W) 05:34:58
BEESAT 3 23 Nov 05:48:30 05:52:40 66° 240° (WSW) 05:56:47 437.485
ISS 23 Nov 05:52:01 05:55:06 36° 27° (NNE) 05:58:11 145.825
CUTE-I 23 Nov 05:53:27 05:58:35 47° 99° (E) 06:03:41 437.470
BEESAT 2 23 Nov 06:01:17 06:05:24 53° 242° (WSW) 06:09:27 435.950
STRAND 1 23 Nov 06:12:22 06:17:28 63° 258° (WSW) 06:22:35 437.568
PRISM 23 Nov 06:16:16 06:19:03 17° 267° (W) 06:21:51 437.425
AIST 1 23 Nov 06:20:15 06:24:15 33° 76° (ENE) 06:28:12
AIST 2 23 Nov 06:21:09 06:25:27 68° 240° (WSW) 06:29:40 435.215
AO-7 23 Nov 06:21:47 06:27:58 24° 308° (NW) 06:34:10 29.400- 29.500
JAS-2 23 Nov 06:24:18 06:30:48 36° 297° (WNW) 06:36:40 435.910
PCSat 23 Nov 06:25:06 06:29:33 27° 252° (WSW) 06:34:00 145.827
GONETS M04 23 Nov 06:30:54 06:35:17 15° 75° (ENE) 06:39:39
O/OREOS (USA 219) 23 Nov 06:41:57 06:46:24 61° 295° (WNW) 06:50:51 437.305
Cubesat XI-IV 23 Nov 06:51:05 06:56:16 52° 289° (WNW) 07:01:23 437.490
CUBESAT XI-V 23 Nov 07:01:23 07:04:49 20° 268° (W) 07:08:17 437.345
ISS 23 Nov 07:28:45 07:31:42 30° 224° (SW) 07:34:38 145.825
CUTE-I 23 Nov 07:34:13 07:38:20 23° 296° (WNW) 07:42:27 437.470
AIST 1 23 Nov 07:58:27 08:01:41 20° 273° (W) 08:04:53
CANX-2 23 Nov 08:03:34 08:06:59 23° 94° (E) 08:10:24 2200.000
AAUSAT CUBESAT 2 23 Nov 08:04:23 08:06:32 14° 91° (E) 08:08:41 437.432
DOVE 4 23 Nov 08:08:08 08:09:14 11° 90° (E) 08:10:19 437.250
COMPASS 1 23 Nov 08:16:31 08:19:47 21° 94° (E) 08:23:03 437.405
HO-68 23 Nov 08:18:24 08:25:07 41° 98° (E) 08:31:45 435.675
GONETS M04 23 Nov 08:21:46 08:30:32 79° 95° (E) 08:39:23
ANTELSAT 23 Nov 08:26:56 08:28:49 13° 62° (ENE) 08:30:41 437.575/2403.000
GOMX 1 23 Nov 08:33:30 08:37:09 29° 96° (E) 08:40:49 467.674
CUTE 1.7 & AOD 2 23 Nov 08:38:05 08:42:17 51° 100° (E) 08:46:27 437.475
BRITE-PL 23 Nov 08:45:55 08:50:01 57° 100° (E) 08:54:06 437.365/2234.400
POPSAT HIP 1 23 Nov 08:47:37 08:50:02 15° 64° (ENE) 08:52:26 437.405
BUGSAT 1 23 Nov 08:50:44 08:52:51 14° 63° (ENE) 08:54:56 437.445
UKube-1 23 Nov 08:51:28 08:54:40 20° 94° (E) 08:57:52 .
CUBEBUG 2 23 Nov 09:00:49 09:03:38 17° 93° (E) 09:06:28 437.445
Oscar 11 23 Nov 09:04:35 09:08:30 32° 97° (E) 09:12:25 145.826/435.025
CINEMA 3 23 Nov 09:05:03 09:08:46 30° 97° (E) 09:12:32 145.822/145.860
UWE-3 23 Nov 09:07:35 09:10:27 18° 93° (E) 09:13:20 435.000/436.395/437.385
SEEDS 23 Nov 09:15:08 09:19:23 70° 285° (WNW) 09:23:37 437.485
POLYITAN 1 23 Nov 09:17:40 09:21:25 31° 69° (ENE) 09:25:10 437.675
TIGRISAT 23 Nov 09:20:46 09:24:50 45° 72° (ENE) 09:28:55 435.000
QB50P2 23 Nov 09:20:52 09:24:42 33° 70° (ENE) 09:28:32 145.880/145.840
DX 1 23 Nov 09:23:08 09:27:20 45° 100° (E) 09:31:29 434.975-435.025
DUCHIFAT 1 23 Nov 09:28:48 09:32:47 39° 71° (ENE) 09:36:46 145.980
UNISAT 6 23 Nov 09:32:29 09:36:43 64° 74° (ENE) 09:40:57 437.425
AAUSAT CUBESAT 2 23 Nov 09:38:24 09:42:30 51° 287° (WNW) 09:46:36 437.432
CANX-2 23 Nov 09:39:10 09:42:57 31° 290° (WNW) 09:46:43 2200.000
VELOX 1 23 Nov 09:39:50 09:43:15 22° 94° (E) 09:46:39 145.980
DOVE 4 23 Nov 09:43:19 09:47:24 59° 286° (WNW) 09:51:33 437.250
NANOSAT C BR1 23 Nov 09:47:24 09:51:38 65° 74° (ENE) 09:55:51 145.865
ZACube-1 23 Nov 09:48:46 09:52:47 43° 99° (E) 09:56:51 437.345
COMPASS 1 23 Nov 09:51:47 09:55:35 32° 290° (WNW) 09:59:22 437.405
HUMSAT D 23 Nov 09:55:26 09:59:07 30° 97° (E) 10:02:50 437.325/437.525
QB50P1 23 Nov 09:56:49 10:01:05 83° 77° (ENE) 10:05:22 145.935-145.965
DELFI C3 23 Nov 09:59:06 10:03:14 70° 285° (WNW) 10:07:20 145.870
ANTELSAT 23 Nov 10:00:53 10:05:07 61° 259° (W) 10:09:22 437.575/2403.000
AISAT 23 Nov 10:03:35 10:07:45 39° 98° (E) 10:11:53 437.250
50 SAT 23 Nov 10:04:51 10:08:29 31° 97° (E) 10:12:08 437.505
HO-68 23 Nov 10:06:12 10:12:45 40° 296° (WNW) 10:19:17 435.675
GOMX 1 23 Nov 10:11:57 10:15:11 22° 292° (WNW) 10:18:25 467.674
CUTE 1.7 & AOD 2 23 Nov 10:15:20 10:17:48 15° 296° (WNW) 10:20:16 437.475
POPSAT HIP 1 23 Nov 10:21:21 10:25:31 51° 260° (W) 10:29:42 437.405
GONETS M04 23 Nov 10:21:44 10:28:22 23° 296° (WNW) 10:35:05
BUGSAT 1 23 Nov 10:23:40 10:27:52 58° 259° (W) 10:32:05 437.445
FUNcube-1 23 Nov 10:24:36 10:28:48 75° 284° (WNW) 10:33:04 145.935
BRITE-PL 23 Nov 10:26:24 10:28:04 12° 297° (WNW) 10:29:44 437.365/2234.400
UKube-1 23 Nov 10:26:58 10:30:57 36° 290° (WNW) 10:34:55 .
CUBEBUG 1 23 Nov 10:28:21 10:32:02 26° 95° (E) 10:35:40 437.445
CUBEBUG 2 23 Nov 10:36:34 10:40:30 40° 288° (WNW) 10:44:30 437.445
Oscar 11 23 Nov 10:41:05 10:44:30 23° 293° (WNW) 10:47:55 145.826/435.025
CINEMA 3 23 Nov 10:42:34 10:45:52 23° 292° (WNW) 10:49:12 145.822/145.860
UWE-3 23 Nov 10:43:14 10:47:09 39° 288° (WNW) 10:51:08 435.000/436.395/437.385
POLYITAN 1 23 Nov 10:53:59 10:57:23 23° 265° (W) 11:00:48 437.675
QB50P2 23 Nov 10:57:25 11:00:41 21° 266° (W) 11:03:57 145.880/145.840
TIGRISAT 23 Nov 10:59:22 11:01:51 15° 268° (W) 11:04:20 435.000
DX 1 23 Nov 11:00:22 11:03:13 17° 296° (WNW) 11:06:03 434.975-435.025
ESTCUBE 1 23 Nov 11:03:14 11:07:46 66° 102° (ESE) 11:12:16 437.505/2401.250
SHINDAISAT 23 Nov 11:03:31 11:04:24 14° 308° (NW) 11:05:17 437.305
DUCHIFAT 1 23 Nov 11:05:55 11:08:49 18° 267° (W) 11:11:43 145.980
UNISAT 6 23 Nov 11:12:49 11:13:56 11° 270° (W) 11:15:03 437.425
VELOX 1 23 Nov 11:15:54 11:19:55 35° 290° (WNW) 11:23:55 145.980
ZACube-1 23 Nov 11:26:08 11:28:52 17° 294° (WNW) 11:31:37 437.345
NANOSAT C BR1 23 Nov 11:26:53 11:27:56 11° 270° (W) 11:28:59 145.865
HUMSAT D 23 Nov 11:31:33 11:34:48 22° 292° (WNW) 11:38:03 437.325/437.525
50 SAT 23 Nov 11:40:36 11:43:38 21° 293° (WNW) 11:46:40 437.505
AISAT 23 Nov 11:40:54 11:44:07 20° 295° (WNW) 11:47:19 437.250
Oscar 19 23 Nov 11:50:59 11:55:33 35° 68° (ENE) 12:00:09 437.125/150
TISAT 1 23 Nov 12:03:41 12:07:55 76° 102° (ESE) 12:12:06 437.305
SPROUT 23 Nov 12:04:07 12:08:23 67° 101° (ESE) 12:12:38 437.525
CUBEBUG 1 23 Nov 12:04:37 12:08:22 28° 292° (WNW) 12:12:05 437.445
SO-50 23 Nov 12:09:04 12:13:31 34° 48° (NE) 12:17:59 436.795
BEESAT 23 Nov 12:12:42 12:15:11 14° 91° (E) 12:17:39 436.000
AUBIESAT-1 23 Nov 12:20:53 12:24:39 22° 98° (E) 12:28:22 437.475
M-CUBED/EXP-1 PRIME 23 Nov 12:23:45 12:27:50 25° 99° (E) 12:31:51 437.505
ITAMSAT 1 23 Nov 12:37:13 12:42:00 38° 68° (ENE) 12:46:47 435.822/435.867
ESTCUBE 1 23 Nov 12:41:53 12:44:05 14° 298° (WNW) 12:46:17 437.505/2401.250
YUBILEINY 23 Nov 12:42:35 12:50:27 36° 71° (ENE) 12:58:13 435.215
Gurwin Techsat 1B 23 Nov 12:52:31 12:57:05 30° 66° (ENE) 13:01:40 435.225
ITUPSAT 1 23 Nov 13:04:51 13:09:30 46° 99° (E) 13:14:06 437.325
CUSAT 1 23 Nov 13:07:51 13:10:43 88° 278° (W) 13:13:19 437.405
SWISSCUBE 23 Nov 13:16:53 13:21:42 69° 102° (ESE) 13:26:27 437.505
DANDE 23 Nov 13:20:48 13:23:47 69° 280° (W) 13:26:25 436.750
KKS-1 23 Nov 13:26:21 13:29:06 16° 92° (E) 13:31:51 437.445
Oscar 19 23 Nov 13:30:32 13:34:54 28° 265° (W) 13:39:19 437.125/150
AO-7 23 Nov 13:36:23 13:42:57 27° 55° (NE) 13:49:33 29.400- 29.500
HORYU 2 23 Nov 13:39:32 13:43:30 33° 69° (ENE) 13:47:29 437.375
SPROUT 23 Nov 13:42:17 13:43:55 12° 298° (WNW) 13:45:33 437.525
TISAT 1 23 Nov 13:42:23 13:43:08 10° 299° (WNW) 13:43:53 437.305
BEESAT 23 Nov 13:48:42 13:53:27 63° 287° (WNW) 13:58:10 436.000
SO-50 23 Nov 13:49:41 13:54:02 33° 246° (WSW) 13:58:24 436.795
AUBIESAT-1 23 Nov 13:55:06 13:59:48 46° 294° (WNW) 14:04:26 437.475
M-CUBED/EXP-1 PRIME 23 Nov 13:58:20 14:02:56 40° 295° (WNW) 14:07:29 437.505
ITAMSAT 1 23 Nov 14:17:09 14:21:32 27° 265° (W) 14:25:57 435.822/435.867
STARS 23 Nov 14:27:03 14:31:19 48° 100° (E) 14:35:34 437.465
Gurwin Techsat 1B 23 Nov 14:32:06 14:36:55 35° 263° (W) 14:41:47 435.225
MaSat-1 23 Nov 14:35:15 14:36:39 13° 108° (ESE) 14:38:00 437.345
YUBILEINY 23 Nov 14:39:11 14:47:29 51° 271° (W) 14:55:43 435.215
PHONESAT 2.4 23 Nov 14:41:54 14:43:42 13° 147° (SSE) 14:45:29 2401.200-2431.200
ITUPSAT 1 23 Nov 14:43:35 14:47:03 20° 296° (WNW) 14:50:31 437.325
JAS-2 23 Nov 14:50:53 14:56:44 25° 58° (ENE) 15:02:43 435.910
RS-15 23 Nov 14:52:22 15:01:04 28° 103° (ESE) 15:09:40 29.354- 29.394
SWISSCUBE 23 Nov 14:56:27 14:58:59 14° 299° (WNW) 15:01:31 437.505
KKS-1 23 Nov 15:01:45 15:06:00 47° 288° (WNW) 15:10:15 437.445
VERMONT LUNAR 23 Nov 15:03:16 15:06:11 23° 153° (SSE) 15:09:07 437.305
O/OREOS (USA 219) 23 Nov 15:12:51 15:16:39 26° 59° (ENE) 15:20:26 437.305
HORYU 2 23 Nov 15:16:45 15:20:14 23° 265° (W) 15:23:45 437.375
AO-7 23 Nov 15:26:43 15:34:59 74° 254° (WSW) 15:43:20 29.400- 29.500
CUTE-I 23 Nov 15:40:06 15:41:41 11° 57° (ENE) 15:43:16 437.470
MOZHAYETS 4 23 Nov 15:47:15 15:49:57 15° 91° (E) 15:52:38
STARS 23 Nov 16:04:40 16:07:26 17° 296° (WNW) 16:10:10 437.465
MaSat-1 23 Nov 16:08:31 16:11:06 25° 300° (WNW) 16:13:29 437.345
PHONESAT 2.4 23 Nov 16:18:23 16:21:56 43° 162° (SSE) 16:25:29 2401.200-2431.200
JAS-2 23 Nov 16:33:21 16:40:53 78° 257° (WSW) 16:48:49 435.910
Cubesat XI-IV 23 Nov 16:33:58 16:38:47 34° 67° (ENE) 16:43:35 437.490
VERMONT LUNAR 23 Nov 16:40:45 16:44:20 62° 169° (S) 16:47:56 437.305
O/OREOS (USA 219) 23 Nov 16:52:07 16:56:02 30° 256° (WSW) 16:59:56 437.305
RS-15 23 Nov 17:01:15 17:12:14 77° 305° (NW) 17:23:15 29.354- 29.394
CUTE-I 23 Nov 17:15:30 17:20:51 79° 74° (ENE) 17:26:14 437.470
CUBESAT XI-V 23 Nov 17:22:39 17:23:17 10° 88° (E) 17:23:55 437.345
MOZHAYETS 4 23 Nov 17:22:57 17:27:31 55° 287° (WNW) 17:32:03
AO-7 23 Nov 17:25:31 17:29:06 13° 273° (W) 17:32:43 29.400- 29.500
PHONESAT 2.4 23 Nov 17:56:53 18:00:36 76° 179° (S) 18:04:19 2401.200-2431.200
PRISM 23 Nov 17:57:42 18:01:57 67° 102° (ESE) 18:06:09 437.425
Cubesat XI-IV 23 Nov 18:14:07 18:18:50 31° 264° (W) 18:23:36 437.490
VERMONT LUNAR 23 Nov 18:19:08 18:22:46 71° 186° (S) 18:26:23 437.305
STRAND 1 23 Nov 18:22:53 18:27:45 43° 99° (E) 18:32:34 437.568
JAS-2 23 Nov 18:23:05 18:27:03 15° 276° (W) 18:31:07 435.910
GONETS M04 23 Nov 18:32:09 18:40:21 40° 72° (ENE) 18:48:26
HO-68 23 Nov 18:47:33 18:53:43 33° 61° (ENE) 18:59:55 435.675
AIST 1 23 Nov 18:50:54 18:54:08 20° 87° (E) 18:57:22
CUBESAT XI-V 23 Nov 18:56:36 19:01:18 78° 284° (WNW) 19:05:55 437.345
CANX-2 23 Nov 18:57:49 19:00:40 18° 66° (ENE) 19:03:32 2200.000
AAUSAT CUBESAT 2 23 Nov 18:58:06 18:58:52 10° 62° (ENE) 18:59:38 437.432
CUTE-I 23 Nov 18:59:07 19:01:31 13° 271° (W) 19:03:55 437.470
COMPASS 1 23 Nov 19:09:32 19:12:07 16° 65° (ENE) 19:14:42 437.405
DOVE 4 23 Nov 19:13:56 19:16:24 15° 64° (ENE) 19:18:49 437.250
